This is the latest recevied weather packets stored in our database for station/object N5UKZ-WX. If no packets are shown the sender has not sent any weather packets the latest 10 day(s).
| Time | Temp. | Humidity | Pressure | Rain* | Wind** | Luminosity | Snow |
|---|---|---|---|---|---|---|---|
| 1787578240 | 28.89° C | 90% | 1015.3 hPa | 0 mm | - | - | - |
| 1787577310 | 28.33° C | 91% | 1015.3 hPa | 0 mm | - | - | - |
| 1787576410 | 27.78° C | 92% | 1015.3 hPa | 0 mm | - | - | - |
| 1787575480 | 27.78° C | 92% | 1015.3 hPa | 0 mm | - | - | - |
| 1787574580 | 27.78° C | 92% | 1014.9 hPa | 0 mm | - | - | - |
| 1787573650 | 27.78° C | 92% | 1014.9 hPa | 0 mm | - | - | - |
| 1787572720 | 27.78° C | 92% | 1014.6 hPa | 0 mm | - | - | - |
| 1787571790 | 27.22° C | 93% | 1014.6 hPa | 0 mm | - | - | - |
| 1787570860 | 26.67° C | 93% | 1014.6 hPa | 0 mm | - | - | - |
| 1787569930 | 26.67° C | 93% | 1014.6 hPa | 0 mm | - | - | - |
| 1787569030 | 26.67° C | 92% | 1014.6 hPa | 0 mm | - | - | - |
| 1787568100 | 27.22° C | 92% | 1014.6 hPa | 0 mm | - | - | - |
| 1787567200 | 26.67° C | 92% | 1014.3 hPa | 0 mm | - | - | - |
| 1787566270 | 27.78° C | 91% | 1013.9 hPa | 0 mm | - | - | - |
| 1787565370 | 27.22° C | 91% | 1014.3 hPa | 0 mm | - | - | - |
| 1787564440 | 27.22° C | 90% | 1014.3 hPa | 0 mm | - | - | - |
| 1787563510 | 27.22° C | 90% | 1013.9 hPa | 0 mm | - | - | - |
| 1787562580 | 27.78° C | 89% | 1013.9 hPa | 0 mm | - | - | - |
| 1787561650 | 28.33° C | 89% | 1013.6 hPa | 0 mm | - | - | - |
| 1787560750 | 28.89° C | 88% | 1013.6 hPa | 0 mm | - | - | - |
| 1787559820 | 28.33° C | 88% | 1013.6 hPa | 0 mm | - | - | - |
| 1787558890 | 28.89° C | 88% | 1013.9 hPa | 0 mm | - | - | - |
| 1787557960 | 28.33° C | 88% | 1013.9 hPa | 0 mm | - | - | - |
| 1787557030 | 27.78° C | 88% | 1013.9 hPa | 0 mm | - | - | - |
| 1787556100 | 28.33° C | 88% | 1013.9 hPa | 0 mm | - | - | - |
* Rain latest hour (hover to see other rain measurements)
** Current wind speed in m/s (hover to see current wind gust speed)